Weather Roundup
Issued by NWS Chicago, IL

Home | Current Version | Previous Version | Text Only | Print | Product List | Glossary Off
Versions: 1 2 3 4 5 6 7 8 9 10 11 12 13 14 15 16 17 18 19 20 21 22 23 24 25 26 27 28 29 30 31 32 33 34 35 36 37 38 39 40 41 42 43 44 45 46 47 48 49 50

684
NZUS59 KLOT 302108
HRRLOT

CHICAGO AREA WEATHER ROUNDUP
NATIONAL WEATHER SERVICE CHICAGO/ROMEOVILLE IL
400 PM CDT SAT JUL 30 2016

NOTE: "FAIR" INDICATES FEW OR NO CLOUDS BELOW 12,000 FEET WITH NO
SIGNIFICANT WEATHER AND/OR OBSTRUCTIONS TO VISIBILITY.

* THESE STATIONS ARE NOT UNDER NWS QUALITY CONTROL. THEY ALSO MAY NOT
  REPORT WEATHER SUCH AS PRECIPITATION OR FOG.

ILZ005-006-012>014-019>023-302200-
NORTHEAST ILLINOIS

CITY           SKY/WX    TMP DP  RH WIND       PRES   REMARKS
OHARE          PTSUNNY   77  64  64 NE10      29.98S
MIDWAY         PTSUNNY   78  65  63 N13       29.97F HX  80
AURORA         MOSUNNY   80  67  64 NE13      29.98S HX  82
LANSING*       PTSUNNY   76  65  68 N12       29.97F
JOLIET*        CLOUDY    80  68  68 NE7       29.97S HX  82
WAUKEGAN       CLOUDY    74  63  68 NE9       30.00S
DUPAGE AIRPORT PTSUNNY   79  65  62 NE10      29.97F HX  81
WHEELING       PTSUNNY   74  64  71 NE12      30.01R
KANKAKEE*      RAIN      72  70  92 NW6       29.98R
MORRIS*        CLOUDY    78  68  70 E5        29.96S HX  80
LEWIS AIRPORT* MOSUNNY   79  64  60 NE6       29.97S HX  80
NORTHERLY ISL    N/A     75  65  70 N13         N/A
$$

WIZ051-052-058>065-066-070>072-302200-
SOUTHEAST WISCONSIN

CITY           SKY/WX    TMP DP  RH WIND       PRES   REMARKS
MILWAUKEE      PTSUNNY   74  62  66 N14       30.01F
KENOSHA*       MOSUNNY   76  62  62 NE10G16   30.01F
RACINE*        MOSUNNY   75  63  66 N10       30.03S
BURLINGTON     MOSUNNY   77  59  54 NE8       30.01S
WAUKESHA       MOSUNNY   73  55  53 NE12      30.03S
WEST BEND      MOSUNNY   73  55  53 NE9       30.03S
$$

INZ001>003-010>013-019-020-302200-
NORTHWEST INDIANA

CITY           SKY/WX    TMP DP  RH WIND       PRES   REMARKS
GARY*          MOSUNNY   77  72  83 NE9       29.98S
MICHIGAN CITY* NOT AVBL
RENSSELAER*    NOT AVBL
VALPARAISO     CLOUDY    77  67  71 N9        29.97S
$$

LMZ740>746-302200-
SOUTHERN LAKE MICHIGAN

STATION/POSITION TIME  SKY/WX   TEMP WIND        PRES    VSBY
                                AIR  DIR/SP/G
                 (UTC)          (F)  (DEG/KT/KT) (MB)    (MI)
HARRISON CRIB    2000            72   20/ 11/ 13   N/A
BURNHAM HARBOR   2100            75   10/  9/ 11   N/A
CALUMET HARBOR   2000            73  360/ 10/ 13 1015.0
BURNS HARBOR     2010            71   10/ 11/ 14 1015.6S
MICHIGAN CITY    2000            71  350/ 13/ 13   N/A
$$

ABBREVIATIONS USED IN REMARKS
   TC - TEMPERATURE IN CELSIUS
  WCI - WIND CHILL INDEX
   HX - HEAT INDEX
  VSB - VISIBILITY
$$




USA.gov is the U.S. government's official web portal to all federal, state and local government web resources and services.